This is the latest recevied weather packets stored in our database for station/object OE6ACM-14. If no packets are shown the sender has not sent any weather packets the latest 10 day(s).
| Time | Temp. | Humidity | Pressure | Rain* | Wind** | Luminosity | Snow |
|---|---|---|---|---|---|---|---|
| 1787930724 | 29.44° C | 44% | 924 hPa | - | - | - | - |
| 1787930424 | 29.44° C | 45% | 924 hPa | - | - | - | - |
| 1787930124 | 29.44° C | 45% | 924.1 hPa | - | - | - | - |
| 1787929824 | 29.44° C | 44% | 924.1 hPa | - | - | - | - |
| 1787929524 | 30° C | 44% | 924.1 hPa | - | - | - | - |
| 1787929224 | 30° C | 43% | 924.1 hPa | - | - | - | - |
| 1787928924 | 30.56° C | 43% | 924 hPa | - | - | - | - |
| 1787928624 | 30.56° C | 42% | 924.1 hPa | - | - | - | - |
| 1787928324 | 31.11° C | 43% | 924.2 hPa | - | - | - | - |
| 1787928024 | 30.56° C | 43% | 924.3 hPa | - | - | - | - |
| 1787927724 | 30° C | 43% | 924.3 hPa | - | - | - | - |
| 1787927424 | 30° C | 43% | 924.3 hPa | - | - | - | - |
| 1787927124 | 31.11° C | 42% | 924.2 hPa | - | - | - | - |
| 1787926824 | 32.22° C | 39% | 924.2 hPa | - | - | - | - |
| 1787926524 | 32.22° C | 41% | 924.1 hPa | - | - | - | - |
| 1787926224 | 32.78° C | 40% | 924.1 hPa | - | - | - | - |
| 1787925924 | 32.78° C | 40% | 924.2 hPa | - | - | - | - |
| 1787925624 | 33.33° C | 39% | 924.1 hPa | - | - | - | - |
| 1787925324 | 33.33° C | 39% | 924.1 hPa | - | - | - | - |
| 1787925024 | 33.33° C | 38% | 924.3 hPa | - | - | - | - |
| 1787924724 | 33.33° C | 39% | 924.3 hPa | - | - | - | - |
| 1787924424 | 33.33° C | 39% | 924.3 hPa | - | - | - | - |
| 1787924124 | 33.33° C | 40% | 924.4 hPa | - | - | - | - |
| 1787923824 | 32.78° C | 40% | 924.3 hPa | - | - | - | - |
| 1787923524 | 32.78° C | 40% | 924.5 hPa | - | - | - | - |
* Rain since midnight (hover to see other rain measurements)
** Current wind speed in m/s (hover to see current wind gust speed)